Tracking 27188 objects as of 2-Apr-2023
HD Live streaming from Space Station
objects crossing your sky now

STARLINK-3648

Track STARLINK-3648 now!
10-day predictions
STARLINK-3648 is classified as:


NORAD ID: 51993
Int'l Code: 2022-025AP
Perigee: 546.1 km
Apogee: 547.7 km
Inclination: 53.2 °
Period: 95.4 minutes
Semi major axis: 6917 km
RCS: Unknown
Launch date: March 9, 2022
Source: United States (US)
Launch site: AIR FORCE EASTERN TEST RANGE (AFETR)
Your satellite tracking list
Your tracking list is empty




NASA's NSSDC Master Catalog

Two Line Element Set (TLE):
1 51993U 22025AP  23091.47096650  .00018405  00000-0  11719-2 0  9999
2 51993  53.2152 176.9860 0001149 105.5087 254.6032 15.08827021 60153
Source of the keplerian elements: AFSPC